Location: Middleton
(38.2931°N, 88.6698°W)
Time: 05:26:21
(UTC+00:00)

Daily predictions for brighter satellites

Satellite Brightness Start Highest point End
(mag) Time Altitude Azimuth Time Altitude Azimuth Time Altitude Azimuth
ISS -2.0 00:00:02 10° NNW 00:02:04 20° N 00:02:04 20° N
Cosmos 2082 Rocket 2.5 00:00:36 10° SSW 00:06:15 67° WNW 00:11:55 10° NNE
SL-16 R/B 3.8 00:02:57 10° N 00:05:04 17° NNE 00:05:04 17° NNE
ATLAS 5 CENTAUR R/B 4.0 00:05:32 10° NNW 00:08:17 15° NNE 00:08:17 15° NNE
CZ-2D R/B 4.2 00:06:12 10° S 00:09:55 50° W 00:13:40 10° NNW
Cosmos 372 Rocket 3.9 00:07:24 10° NNW 00:12:40 83° ENE 00:17:54 10° SSE
Cosmos 1666 Rocket 3.4 00:10:21 10° N 00:14:49 87° E 00:19:12 10° S
Cosmos 1328 Rocket 3.4 00:11:38 10° S 00:16:04 82° E 00:19:19 18° N
CZ-4 R/B 4.3 00:13:29 10° SSE 00:17:35 75° ENE 00:21:43 10° N
CZ-2C R/B 2.6 00:15:41 10° SW 00:19:11 25° SSE 00:19:38 25° SSE
Meteor 1-27 Rocket 4.4 00:15:15 10° SSE 00:19:10 31° ESE 00:19:10 31° ESE
Lacrosse 5 rocket 3.7 00:18:32 10° N 00:18:55 11° N 00:18:55 11° N
Cosmos 2278 3.6 00:15:35 10° NNW 00:21:15 62° ENE 00:26:51 10° SSE
ARGOS 3.1 00:21:20 10° SSE 00:26:46 87° WSW 00:32:12 10° NNW
SKYMED 2 4.4 00:23:01 10° N 00:27:14 50° WNW 00:31:25 10° SSW
IRAS Rocket 4.4 00:28:34 46° E 00:28:57 46° E 00:34:13 10° S
Landsat 5 3.6 00:26:39 25° N 00:28:57 68° WNW 00:32:52 10° SSW
COSMOS 2455 4.1 00:26:01 10° WSW 00:31:32 37° NW 00:36:35 12° N
SL-08 RB Rocket 3.6 00:28:35 10° SSE 00:33:13 79° ENE 00:37:51 10° N
Meteor 2-15 4.3 00:29:27 10° S 00:35:35 88° E 00:41:43 10° N
Meteor 2-6 Rocket 4.4 00:30:47 10° SSW 00:36:35 71° W 00:42:15 10° N
Cosmos 1655 Rocket 3.9 00:33:16 10° N 00:39:39 70° E 00:45:58 10° SSE
DMSP B5D2-2 3.9 00:40:33 58° NE 00:41:29 73° ESE 00:46:41 10° S
NOAA 15 4.4 00:36:19 10° SSE 00:41:34 69° ENE 00:46:49 10° N
USA 234 3.9 00:37:34 10° SSE 00:43:56 55° SW 00:50:20 10° NW
CZ-4B R/B 4.1 00:40:04 10° S 00:45:17 47° W 00:50:28 10° NNW
GEOS 3 Rocket 4.3 00:46:40 40° N 00:46:40 40° N 00:50:23 10° NNW
H-2A R/B 4.4 00:49:35 14° S 00:49:35 14° S 00:50:17 10° S
GPS 2-04 Rocket1 3.6 00:43:28 10° W 00:47:01 44° SSW 00:47:01 44° SSW
DMSP 5D-2 F-14 4.5 00:44:20 10° SSE 00:49:45 75° ENE 00:55:12 10° N
CZ-2C R/B 4.1 00:47:29 10° N 00:52:07 34° WNW 00:56:43 10° SW
Cosmos 1818 4.5 00:48:23 10° NNW 00:51:49 36° N 00:51:49 36° N
Cosmos 1515 Rocket 4.1 00:52:59 10° SSW 00:56:51 58° WSW 00:56:51 58° WSW
CZ-4C R/B 3.2 01:09:26 10° NW 01:17:04 75° WSW 01:21:47 30° SSE
SL-16 R/B 4.4 01:45:52 10° NNW 01:46:59 16° NNW 01:46:59 16° NNW
ATLAS 3B CENTAUR R/B 4.4 01:42:37 10° WSW 02:00:52 56° S 02:02:42 53° SSE
Cosmos 1867 4.5 10:03:11 46° E 10:03:11 46° E 10:07:20 10° SE
Cosmos 2369 Rocket 3.0 10:05:54 38° SSE 10:07:23 47° ESE 10:12:43 10° NE
Cosmos 1943 Rocket 3.8 10:35:16 21° N 10:35:16 21° N 10:37:14 10° N
COSMO-SKYMED 1 4.4 10:28:36 10° SE 10:32:20 29° ENE 10:35:30 13° NNE
CZ-2C R/B 4.0 10:28:46 10° SE 10:33:47 38° ENE 10:38:44 10° N
CENTAUR R/B 3.4 10:38:45 32° NNW 10:38:45 32° NNW 10:43:29 10° NNE
Envisat 3.6 10:36:40 10° NNE 10:41:41 56° E 10:46:39 10° S
Cosmos 2098 Rocket 3.6 10:40:47 10° S 10:44:23 54° E 10:48:55 10° NNE
DELTA 2 R/B (1) 3.6 10:47:14 57° SW 10:48:19 76° SSE 10:53:51 10° ENE
Cosmos 2034 Rocket 4.4 10:51:33 42° WSW 10:51:33 42° WSW 10:56:24 10° SSW
Genesis I 3.3 10:52:06 80° ESE 10:52:06 80° ESE 10:55:58 10° SSE
NOSS 3-2 (C) 4.1 11:00:55 33° NNW 11:00:55 33° NNW 11:06:01 10° NNE
Cosmos 1812 2.7 11:03:50 38° N 11:05:12 80° E 11:09:02 10° S
ATLAS 3B R/B 4.4 11:00:14 10° S 11:05:49 32° ESE 11:11:34 10° NE
MOS 1-B Rocket 3.9 11:00:03 10° S 11:06:34 78° WSW 11:12:22 10° NNW
CBERS 1 LM4 rocket 4.5 11:02:21 10° NNE 11:07:16 82° ESE 11:12:21 10° SSW
Cosmos 1354 Rocket 4.5 11:02:19 10° S 11:07:30 62° ESE 11:12:44 10° NNE
SJ 16-02 3.7 11:05:13 10° SSE 11:08:45 24° E 11:12:19 10° NE
Cosmos 1634 Rocket 3.9 11:05:25 10° NNW 11:11:39 69° W 11:17:47 10° S
ADEOS 4.1 11:10:44 10° NNE 11:15:54 60° ESE 11:21:03 10° S
CZ-4B R/B 4.0 11:12:20 10° N 11:16:49 79° WNW 11:21:16 10° SSW
Landsat 5 3.9 11:12:49 10° SSE 11:17:17 71° ENE 11:21:46 10° N
Tsikada Rocket 4.5 11:11:56 10° SW 11:17:28 34° WNW 11:23:06 10° NNW
Meteor 2-6 Rocket 4.2 11:13:05 10° N 11:18:30 78° E 11:23:53 10° SSE
CZ-4C R/B 3.9 11:16:30 10° SSE 11:19:30 42° ENE 11:22:17 11° N
ATLAS 5 CENTAUR R/B 2.9 11:16:30 10° S 11:19:54 34° ESE 11:23:34 10° NE
SKYMED 2 3.4 11:15:55 10° S 11:20:14 80° WSW 11:24:07 13° NNW
Meteor 1-31 Rocket 2.8 11:24:04 10° N 11:27:54 56° WNW 11:31:44 10° SSW
CZ-2C R/B 3.9 11:23:44 10° NNE 11:28:32 51° E 11:33:32 10° S
Cosmos 1782 4.1 11:33:13 22° WSW 11:33:13 22° WSW 11:35:21 10° SW
USA 215 3.7 11:25:46 10° ESE 11:32:08 59° NE 11:37:55 13° NW
Cosmos 921 Rocket 3.5 11:30:39 28° NW 11:32:21 40° W 11:36:31 10° S
Cosmos 1833 4.4 11:27:48 10° NNW 11:33:32 74° ENE 11:39:15 10° SSE
H-2A R/B 3.4 11:32:02 10° N 11:35:19 30° WNW 11:38:38 10° SW
Cosmos 1862 3.7 11:33:43 10° SSW 11:37:25 39° W 11:41:08 10° N
H-2A R/B 3.8 11:34:09 10° SE 11:37:56 32° ENE 11:41:48 10° N
Meteor 1-10 Rocket 4.2 11:33:51 10° N 11:39:26 86° E 11:44:58 10° S
Okean 3 Rocket 3.9 11:36:58 10° SSW 11:41:17 44° W 11:45:39 10° N
Cosmos 2180 Rocket 4.4 11:36:53 10° N 11:43:03 81° W 11:49:10 10° S
Cosmos 1151 Rocket 3.5 11:42:46 12° NNW 11:46:32 37° W 11:50:33 10° SSW
Cosmos 1503 Rocket 4.3 11:43:43 10° SW 11:48:43 45° WNW 11:53:49 10° N
Meteor 2-8 Rocket 4.4 11:43:12 10° NNW 11:49:19 70° W 11:55:21 10° S
Cosmos 1766 Rocket 4.3 11:46:23 10° SW 11:50:12 30° WNW 11:54:01 10° NNW
BREEZE-M DEB (TANK) 4.2 11:37:03 14° NW 11:51:33 58° SW 11:56:21 10° SSE
Cosmos 2369 Rocket 3.2 11:47:55 13° WSW 11:51:37 24° NW 11:56:04 10° N
BREEZE-M DEB (TANK) 4.4 11:41:05 14° WNW 11:51:49 60° NNE 11:55:39 10° ESE
SL-27 R/B 3.3 11:51:47 10° N 11:55:17 52° ENE 11:58:43 10° SSE
